Weather History for Bettles, AK

Change the Weather History Date:

Saturday, September 15, 2012

  Actual Average Record
Temperature  
Mean Temperature 38 °F -  
Max Temperature 46 °F 52 °F 66 °F (2006)
Min Temperature 30 °F 35 °F 17 °F (2003)
Degree Days  
Heating Degree Days 27    
Moisture  
Dew Point 34 °F    
Average Humidity 86    
Maximum Humidity 100    
Minimum Humidity 49    
Precipitation  
Precipitation 0.01 in - - ()
Sea Level Pressure  
Sea Level Pressure 29.81 in    
Wind  
Wind Speed 1 mph (NE)    
Max Wind Speed 6 mph    
Max Gust Speed -    
Visibility 10 miles    
Events Fog , Rain    
Averages and records for this station are not official NWS values.
T = Trace of Precipitation, MM = Missing Value Source: NWS Daily Summary

Daily Weather History Graph

Daily Weather History Graph

Search for Another Location

Airport:

Trip Planner

Search our weather history database for the weather conditions in past years. The results will help you decide how hot, cold, wet, or windy it might be!

Date:

Astronomy

Sep. 15, 2012 Rise Set
Actual Time 7:27 AM AKDT 8:32 PM AKDT
Civil Twilight 6:32 AM AKDT 9:27 PM AKDT
Nautical Twilight 5:21 AM AKDT 10:37 PM AKDT
Astronomical Twilight 3:43 AM AKDT 12:11 AM AKDT
Moon 7:26 AM AKDT (9/15) 7:37 PM AKDT (9/15)
Length of Visible Light 14h 55m
Length of Day
13h 05m
Waning Crescent, 0% of the Moon is Illuminated
Sep 15
Waning Crescent
Sep 15
New
Sep 22
First Quarter
Sep 29
Full
Oct 7
Last Quarter

Hourly Weather History & Observations

Time (AKDT) Temp. Windchill Dew Point Humidity Pressure Visibility Wind Dir Wind Speed Gust Speed Precip Events Conditions
12:06 AM 35.6 °F - 35.6 °F 100% 29.79 in 10.0 mi Calm Calm - 0.00 in Rain Light Rain
12:53 AM 35.1 °F - 34.0 °F 96% 29.83 in 10.0 mi Calm Calm - 0.00 in   Overcast
1:53 AM 32.0 °F - 32.0 °F 100% 29.83 in 10.0 mi Calm Calm - N/A   Overcast
2:53 AM 30.9 °F - 30.0 °F 96% 29.83 in 10.0 mi Calm Calm - N/A   Overcast
3:53 AM 30.9 °F - 30.9 °F 100% 29.83 in 10.0 mi Calm Calm - N/A   Overcast
4:53 AM 32.0 °F - 30.9 °F 96% 29.83 in 10.0 mi Calm Calm - N/A   Overcast
5:53 AM 32.0 °F - 30.9 °F 96% 29.83 in 10.0 mi Calm Calm - N/A   Overcast
6:53 AM 33.1 °F - 32.0 °F 96% 29.84 in 10.0 mi Calm Calm - N/A   Overcast
7:53 AM 33.1 °F - 32.0 °F 96% 29.83 in 10.0 mi Calm Calm - N/A   Overcast
8:53 AM 33.1 °F - 32.0 °F 96% 29.83 in 10.0 mi Calm Calm - N/A Fog Patches of Fog
9:53 AM 34.0 °F - 33.1 °F 96% 29.85 in 10.0 mi Calm Calm - N/A   Overcast
10:53 AM 36.0 °F 33.3 °F 34.0 °F 93% 29.84 in 10.0 mi North 3.5 mph - N/A   Overcast
11:53 AM 39.0 °F - 34.0 °F 82% 29.84 in 10.0 mi Calm Calm - N/A   Overcast
12:53 PM 43.0 °F - 34.0 °F 71% 29.83 in 10.0 mi Calm Calm - N/A   Mostly Cloudy
1:53 PM 43.0 °F - 33.1 °F 68% 29.83 in 10.0 mi Calm Calm - N/A   Mostly Cloudy
2:53 PM 44.1 °F - 34.0 °F 68% 29.82 in 10.0 mi Calm Calm - N/A   Mostly Cloudy
3:53 PM 46.0 °F 43.9 °F 33.1 °F 61% 29.81 in 10.0 mi North 4.6 mph - N/A   Mostly Cloudy
4:53 PM 45.0 °F - 32.0 °F 60% 29.80 in 10.0 mi Calm Calm - N/A   Mostly Cloudy
5:53 PM 45.0 °F - 34.0 °F 65% 29.79 in 10.0 mi Calm Calm - N/A   Mostly Cloudy
6:53 PM 44.1 °F 41.5 °F 35.1 °F 71% 29.78 in 10.0 mi ESE 4.6 mph - 0.00 in Rain Light Rain
7:53 PM 43.0 °F 41.3 °F 37.0 °F 80% 29.78 in 10.0 mi SE 3.5 mph - 0.00 in Rain Light Rain
8:53 PM 41.0 °F - 39.0 °F 93% 29.77 in 10.0 mi Calm Calm - 0.00 in   Overcast
9:53 PM 39.9 °F - 39.0 °F 97% 29.75 in 10.0 mi Calm Calm - 0.00 in Rain Light Rain
10:53 PM 39.9 °F 36.7 °F 37.9 °F 93% 29.73 in 10.0 mi NE 4.6 mph - 0.00 in   Overcast
11:53 PM 39.9 °F 35.8 °F 37.0 °F 89% 29.71 in 10.0 mi NNE 5.8 mph - N/A   Overcast